STARLINK-32622, 61927

Orbit data source: Space-Track

STARLINK-32622, 61927 is a payload satellite owned by SpaceX/Seattle (US) in LEO that was launched on Mon, 11 Nov 2024 UTC via an FALCON 9 launch vehicle from the Air Force Eastern Test Range (AFETR). Payloads include a variety of satellites, spacecraft, and rockets equipped with specific instruments for various scientific and technological missions. These include communications satellites like Starlink; space stations such as the ISS; scientific satellites like the Hubble; Earth observation satellites from companies like Planet Labs, Umbra, and HawkEye 360; GPS; miniature CubeSats for education and research; and military/defense satellites.

Loading next visibility...
STARLINK-32622 details
Identifier
61927, 2024-207R
Orbit
LEO
Last TLE update9 hours ago
Origin
Flag of USSpaceX/Seattle (US)
ManufacturerSpaceX/Seattle
MissionOperational spacecraft
Bus & MotorSTARLINK V2M, Unknown motor
Mass730 kg wet, ~700 kg dry
Launch date (UTC)
2024-11-11 (1 week ago)
Launch vehicle
FALCON 9
Launch site
Air Force Eastern Test Range (AFETR)
Object type
Payload
Rocket body
Debris
Shape & HBRUnknown
Radar Cross SectionRCS unknown

Expand to show TLE details & history

TLE from 9 hours ago
0 STARLINK-32622
1 61927U 24207R   24325.91668981 -.00793232  19653-3 -24054-2 0  9996
2 61927  43.0022  94.4459 0001869 289.0975 245.7514 15.91128554  2547
Epoch: 2024-11-20T22:00Z
Definitive object data (Epoch: 2024-11-20T22:00:01.999Z)
Latitude3.48591°
Longitude-119.69229°
Altitude299.02 km
Speed7.73 km/s
True Right ascension18h 02m 53s
True Declination3° 27' 49"
Sunlit
Object was in daylight at TLE epoch
Visualization TLE readout
Latitude43.10739°
Longitude148.17375°
Altitude305.063 km
Speed7.73 km/s
Apparent Right ascension13h 48m 51s
Apparent Declination3° 09' 24"
Sunlit
Object is in daylight
Visualization observer readout
Local Sidereal Time03:43:04
Azimuth38.265° NE
Elevation-39.595°
Doppler factor1
Orbital elements
Apogee altitude302.37 km
Perigee altitude299.873 km
Semi-major axis6,679.259 km
Eccentricity0.0001869
Inclination43.0022°
RAAN94.4459°
Arg. of periapsis289.0975°
True anomaly245.73187°
Mean anomaly245.7514°
Eccentric anomaly245.74164°
Mean motion3.97604 °/min
BSTAR-0.0024054
Orbital period90.54 mins
Loading maneuver chart data...
Loading historical data...
Loading historical data...
Loading historical data...
Loading historical data...
Loading historical data...
Loading historical data...
Loading historical data...

STARLINK-32622 Visibility forecast

Observer location: undefined°, undefined

Span
Click to sort rows by Start time (UTC) header in descending order
Start Az.
Max El. time (UTC)
Max El. Az.
Max El.
End time (UTC)
End Az.
4 mins2024-11-21 12:34:29.669Z224.236° SW2024-11-21 12:36:29.669Z131.736° SE34.177°2024-11-21 12:38:29.669Z81.574° E
|